Location: Auckland
(36.8670°S, 174.7670°E)
Time: 12:53:12
(UTC+13:00)

Explorer 7 - Visible Passes

Search period start: 14 October 2019 00:00
Search period end: 24 October 2019 00:00
Orbit: 485 x 680 km, 50.3° (Epoch: 13 October)

Date Brightness Start Highest point End Pass type
(mag) Time Alt. Az. Time Alt. Az. Time Alt. Az.
14 Oct 10.2 02:42:04 12° SE 02:42:04 12° SE 02:42:21 10° SE visible
14 Oct 8.7 04:18:23 27° SSW 04:18:29 27° SSW 04:22:36 10° SE visible
14 Oct 9.5 05:57:28 10° SW 06:00:22 16° S 06:03:11 10° SE visible
15 Oct 10.0 02:46:37 14° SE 02:46:37 14° SE 02:47:21 10° SE visible
15 Oct 9.0 04:22:55 21° SSW 04:23:46 22° SSW 04:27:30 10° SSE visible
15 Oct 9.6 06:02:52 10° SW 06:05:48 16° S 06:08:37 10° SE visible
16 Oct 9.9 02:51:07 17° SE 02:51:07 17° SE 02:52:15 10° SE visible
16 Oct 9.3 04:27:25 16° SW 04:29:07 19° SSW 04:32:29 10° SSE visible
16 Oct 9.5 06:08:05 10° SSW 06:11:12 17° S 06:14:13 10° SE visible
17 Oct 9.8 02:55:37 18° SSE 02:55:37 18° SSE 02:57:09 10° SE visible
17 Oct 9.5 04:31:55 12° SW 04:34:30 17° S 04:37:35 10° SSE visible
18 Oct 9.7 03:00:05 19° SSE 03:00:05 19° SSE 03:02:02 10° SE visible
18 Oct 9.7 04:36:53 10° SW 04:39:55 16° S 04:42:52 10° SE visible
19 Oct 9.6 03:04:33 19° S 03:04:33 19° S 03:06:58 10° SSE visible
19 Oct 9.7 04:42:13 10° SW 04:45:20 16° S 04:48:21 10° SE visible
20 Oct 9.6 03:08:59 18° S 03:08:59 18° S 03:11:59 10° SSE visible
20 Oct 9.6 04:47:22 10° SSW 04:50:43 18° S 04:53:59 10° SE visible
21 Oct 9.6 03:13:27 16° SSW 03:14:00 17° S 03:17:09 10° SE visible
21 Oct 9.5 04:52:22 10° SSW 04:56:05 21° SSE 04:59:41 10° ESE visible
22 Oct 9.7 03:17:55 15° SSW 03:19:25 16° S 03:22:31 10° SE visible
22 Oct 9.2 04:57:16 10° SW 05:01:24 26° SSE 05:05:19 10° E visible
23 Oct 10.3 01:46:07 11° SSE 01:46:07 11° SSE 01:46:23 10° SSE visible
23 Oct 9.8 03:22:25 13° SSW 03:24:50 17° S 03:28:03 10° SE visible
23 Oct 8.7 05:02:09 10° SW 05:06:38 35° SSE 05:10:52 10° E visible
